[[{"header":{"parameterUnit":"m.s-1","parameterCategory":1,"la1":30.2991,"la2":30.254,"lo1":-89.0895,"lo2":-89.0444,"dy":0.0017,"dx":0.0017,"nx":28,"ny":28,"refTime":"2023-11-15T09:00:00:Z","depth":0,"parameterNumber":2,"parameterNumberName":"U-component_of_WINDS"},"data":[0,0,0,0,0,0,0,0,0,0,0,0,0,0,0,0,0,0,0,0,0,0,0,0,0,0,0,0,0,0,0,0,0,0,0,0,0,0,0,0,0,0,0,0,0,0,0,0,0,0,0,0,0,0,0,0,0,0,-4.7888,-4.7889,0,-4.7987,-4.7988,-4.7989,-4.7889,-4.7885,-4.7882,-4.7878,-4.7981,-4.7987,-4.7993,0,0,0,0,0,0,0,0,0,0,0,0,0,-4.7615,-4.762,-4.7888,-4.7889,-4.7891,-4.7986,-4.7988,-4.7989,-4.789,-4.7885,-4.788,-4.7876,-4.7978,-4.7986,-4.7994,0,0,0,0,0,0,0,0,0,0,0,0,0,-4.7726,-4.7622,-4.7888,-4.7853,-4.785,-4.7986,-4.7988,-4.799,-4.7891,-4.7885,-4.7879,-4.7874,-4.7976,-4.7985,-4.7995,-4.8171,0,0,-4.8024,-4.8028,0,0,0,0,0,0,0,0,-4.772,-4.7736,-4.7857,-4.7855,-4.7853,-4.792,-4.7929,-4.805,-4.7892,-4.7876,-4.7878,-4.7871,-4.7965,-4.7975,-4.8007,-4.8176,-4.818,-4.8025,-4.803,-4.8035,-4.8037,0,0,0,0,0,0,0,-4.7712,-4.7731,-4.7927,-4.7858,-4.7856,-4.7832,-4.7841,-4.7952,-4.7952,-4.7877,-4.787,-4.7883,-4.7963,-4.7998,-4.8008,-4.8181,-4.8024,-4.8033,-4.8039,-4.8043,-4.8501,-4.8507,0,0,0,0,0,0,-4.7708,-4.7725,-4.7924,-4.793,-4.777,-4.7842,-4.7852,-4.7904,-4.7951,-4.7952,-4.7887,-4.7878,-4.7984,-4.7997,-4.8011,-4.8222,-4.8034,-4.8043,-4.8049,-4.8494,-4.8502,-4.8509,0,0,0,0,0,0,-4.7703,-4.7727,-4.792,-4.7826,-4.7849,-4.7853,-4.7912,-4.7909,-4.7944,-4.7959,-4.7958,-4.7923,-4.798,-4.7998,-4.8132,-4.8224,-4.8048,-4.8056,-4.8487,-4.8497,-4.8506,-4.8644,0,0,0,0,0,0,-4.7695,-4.7725,-4.7792,-4.7828,-4.7854,-4.8039,-4.7918,-4.7915,-4.796,-4.7948,-4.7992,-4.7993,-4.7977,-4.8118,-4.8142,-4.8234,-4.8064,-4.8479,-4.8491,-4.8503,-4.8632,-4.8658,-4.868,0,0,0,0,0,-4.7686,-4.7827,-4.7796,-4.7821,-4.7938,-4.8045,-4.8059,-4.8037,-4.7968,-4.8036,-4.8045,-4.7992,-4.821,-4.8133,-4.8158,-4.8255,-4.8473,-4.8488,-4.8502,-4.8621,-4.8653,-4.8679,0,0,0,0,0,0,-4.7803,-4.7831,-4.7797,-4.7954,-4.7998,-4.8027,-4.8112,-4.8071,-4.8135,-4.8122,-4.8091,-4.8102,-4.8244,-4.8262,-4.8176,-4.8428,-4.833,-4.835,-4.8412,-4.8442,-4.8466,-4.846,-4.8072,0,0,0,0,0,-4.7847,-4.7931,-4.7951,-4.8088,-4.8112,-4.8108,-4.8154,-4.8133,-4.8177,-4.8195,-4.8214,-4.8259,-4.8338,-4.839,-4.8463,-4.8633,-4.8642,-4.8712,-4.8736,-4.8755,-4.8774,-4.8867,-4.8899,-4.8557,-4.8557,-4.8556,0,0,-4.7939,-4.7965,-4.802,-4.8112,-4.8144,-4.8232,-4.8125,-4.8222,-4.8288,-4.821,-4.8338,-4.8354,-4.8402,-4.8555,-4.8623,-4.8575,-4.887,-4.8774,-4.879,-4.8798,-4.8885,-4.8917,-4.8946,-4.8567,-4.8565,-4.8563,0,0,-4.8153,-4.818,-4.8298,-4.8331,-4.8379,-4.8376,-4.8404,-4.844,-4.8448,-4.8576,-4.8519,-4.8596,-4.8732,-4.8769,-4.8806,-4.9033,-4.8987,-4.9057,-4.9184,-4.9275,-4.9302,-4.9326,-4.9409,-4.9439,-4.9075,-4.9076,-4.9076,0,-4.8262,-4.8392,-4.8364,-4.8466,-4.8509,-4.8441,-4.8561,-4.8594,-4.8664,-4.8696,-4.864,-4.8809,-4.8836,-4.8998,-4.9053,-4.9084,-4.9117,-4.9054,-4.93,-4.9324,-4.9345,-4.9424,-4.9456,-4.9084,-4.9083,-4.9082,-4.9082,0,-4.8525,-4.8616,-4.8706,-4.8775,-4.8827,-4.8938,-4.8927,-4.8983,-4.8957,-4.896,-4.9091,-4.9122,-4.92,-4.9236,-4.9212,-4.9395,-4.9363,-4.9304,-4.9205,-4.9387,-4.9461,-4.9491,-4.9096,-4.9093,-4.9091,-4.9089,0,0,-4.8818,-4.8869,-4.8902,-4.8933,-4.8981,-4.9052,-4.9159,-4.9235,-4.9285,-4.9335,-4.9426,-4.9542,-4.9487,-4.9529,-4.9508,-4.9587,-4.9767,-4.9518,-4.9519,-4.9565,-4.9973,-5.0019,-5.0055,-4.9736,-4.9741,-4.9746,-4.997,0,-4.9034,-4.9221,-4.9198,-4.9377,-4.9462,-4.9398,-4.9492,-4.9532,-4.9537,-4.961,-4.9615,-4.9699,-4.962,-4.9645,-4.972,-4.973,-4.9849,-4.9712,-4.9822,-4.9826,-4.9814,-5.0093,-5.0142,-5.0352,-4.9998,-5.0003,-5.0006,0,-4.9313,-4.9373,-4.9561,-4.9596,-4.9631,-4.9716,-4.9784,-4.9854,-4.9898,-4.9896,-4.9943,-4.9908,-5.0016,-4.9913,-5.0063,-4.997,-5.0013,-5.0024,-5.0032,-5.0044,-4.9929,-5.0115,-5.0418,-5.0451,-5.0051,-5.0047,-5.0044,0,-4.9511,-4.9638,-4.9768,-4.9796,-4.9839,-4.9901,-4.9922,-4.9959,-5.0007,-5.0066,-5.0097,-5.0169,-5.0209,-5.0265,-5.025,-5.0176,-5.0405,-5.03,-5.0408,-5.0409,-5.0461,-5.0459,-5.0779,-5.0484,-5.0484,-5.0483,-5.0483,0,-4.9758,-4.9876,-4.9857,-4.9937,-5.0067,-5.0039,-5.0169,-5.0182,-5.0216,-5.0298,-5.0246,-5.0324,-5.0298,-5.0375,-5.0364,-5.0491,-5.0508,-5.0511,-5.0507,-5.0518,-5.0518,-5.0547,-5.0534,-5.0492,-5.049,-5.0488,-5.0487,0,-5.0002,-4.9994,-5.0131,-5.0161,-5.0171,-5.0266,-5.0291,-5.0367,-5.0367,-5.0471,-5.0494,-5.0495,-5.0582,-5.0572,-5.067,-5.0663,-5.0821,-5.0798,-5.0807,-5.0803,-5.0912,-5.0903,-5.1265,-5.1312,-5.0985,-5.0988,-5.099,0,-5.0161,-5.0251,-5.029,-5.0341,-5.0366,-5.0448,-5.0496,-5.0471,-5.0524,-5.058,-5.065,-5.0732,-5.0797,-5.094,-5.095,-5.1025,-5.1005,-5.1126,-5.1016,-5.1024,-5.101,-5.1006,-5.1016,-5.1149,-5.1153,-5.1156,-5.1159,0,-5.0446,-5.0437,-5.0508,-5.0579,-5.0638,-5.0692,-5.0741,-5.0786,-5.0765,-5.0827,-5.0916,-5.0966,-5.1066,-5.1149,-5.122,-5.1241,-5.1199,-5.1193,-5.1222,-5.1235,-5.1238,-5.124,-5.0869,-5.1185,-5.1183,-5.1181,-5.1179,-5.1178,-5.0654,-5.0731,-5.0771,-5.0852,-5.0886,-5.0933,-5.1006,-5.1015,-5.1088,-5.1167,-5.1148,-5.1249,-5.129,-5.138,-5.1409,-5.1488,-5.1444,-5.1486,-5.1497,-5.1509,-5.1523,-5.1222,-5.15,-5.1499,-5.1499,-5.1498,-5.1498,0,-5.0938,-5.096,-5.1035,-5.1105,-5.117,-5.1121,-5.1172,-5.123,-5.1319,-5.1361,-5.1426,-5.1528,-5.1608,-5.1624,-5.1701,-5.1761,-5.1743,-5.1783,-5.1779,-5.1786,-5.1557,-5.1525,-5.1796,-5.1796,-5.1796,-5.1796,-5.1796,-5.1796,-5.1094,-5.1222,-5.1218,-5.1363,-5.1383,-5.1482,-5.1516,-5.1559,-5.1592,-5.1709,-5.1775,-5.1784,-5.1816,-5.1895,-5.1967,-5.1969,-5.2001,-5.2049,-5.2045,-5.1831,-5.1801,-5.1773,-5.1743,-5.2056,-5.2056,-5.2267,-5.2269,-5.2271]},{"header":{"parameterUnit":"m.s-1","parameterCategory":1,"la1":30.2991,"la2":30.254,"lo1":-89.0895,"lo2":-89.0444,"dy":0.0017,"dx":0.0017,"nx":28,"ny":28,"refTime":"2023-11-15T09:00:00:Z","depth":0,"parameterNumber":3,"parameterNumberName":"V-component_of_WINDS"},"data":[0,0,0,0,0,0,0,0,0,0,0,0,0,0,0,0,0,0,0,0,0,0,0,0,0,0,0,0,0,0,0,0,0,0,0,0,0,0,0,0,0,0,0,0,0,0,0,0,0,0,0,0,0,0,0,0,0,0,-5.4702,-5.4702,0,-5.4716,-5.4716,-5.4716,-5.464,-5.4638,-5.4635,-5.4633,-5.4646,-5.4648,-5.4651,0,0,0,0,0,0,0,0,0,0,0,0,0,-5.4607,-5.4609,-5.4702,-5.4702,-5.4702,-5.4716,-5.4716,-5.4716,-5.464,-5.4637,-5.4635,-5.4632,-5.4645,-5.4648,-5.4651,0,0,0,0,0,0,0,0,0,0,0,0,0,-5.4637,-5.4609,-5.4702,-5.4666,-5.4663,-5.4716,-5.4716,-5.4716,-5.4641,-5.4637,-5.4634,-5.4631,-5.4644,-5.4648,-5.4651,-5.4739,0,0,-5.4662,-5.4664,0,0,0,0,0,0,0,0,-5.4635,-5.4641,-5.4671,-5.4668,-5.4665,-5.4673,-5.4687,-5.4724,-5.4641,-5.4649,-5.4633,-5.4629,-5.4657,-5.466,-5.4669,-5.4739,-5.474,-5.4662,-5.4665,-5.4666,-5.4667,0,0,0,0,0,0,0,-5.4633,-5.464,-5.4707,-5.4671,-5.4668,-5.4648,-5.4649,-5.4693,-5.4671,-5.4648,-5.4643,-5.4645,-5.4655,-5.4666,-5.4669,-5.474,-5.4662,-5.4665,-5.4668,-5.4669,-5.4881,-5.4884,0,0,0,0,0,0,-5.4636,-5.4638,-5.4707,-5.4708,-5.4642,-5.4653,-5.4653,-5.4673,-5.4671,-5.4667,-5.4648,-5.4642,-5.4662,-5.4665,-5.4669,-5.4771,-5.4666,-5.4669,-5.4671,-5.4877,-5.4882,-5.4885,0,0,0,0,0,0,-5.4635,-5.4643,-5.4706,-5.4671,-5.4678,-5.4658,-5.4681,-5.4675,-5.4686,-5.4671,-5.4666,-5.4664,-5.4659,-5.4664,-5.4722,-5.477,-5.4671,-5.4674,-5.4873,-5.4879,-5.4884,-5.4975,0,0,0,0,0,0,-5.4632,-5.4643,-5.4677,-5.4673,-5.468,-5.476,-5.4684,-5.4678,-5.4693,-5.4685,-5.4684,-5.4681,-5.4657,-5.4717,-5.4725,-5.4773,-5.4677,-5.4869,-5.4876,-5.4882,-5.4968,-5.4983,-5.4996,0,0,0,0,0,-5.4629,-5.4702,-5.4679,-5.4688,-5.4722,-5.4762,-5.4767,-5.4738,-5.4697,-5.473,-5.472,-5.4681,-5.4764,-5.4723,-5.4732,-5.4782,-5.4866,-5.4874,-5.4881,-5.4961,-5.498,-5.4995,0,0,0,0,0,0,-5.4712,-5.4701,-5.4675,-5.4749,-5.4757,-5.475,-5.4791,-5.4759,-5.4779,-5.477,-5.4733,-5.4734,-5.4798,-5.4795,-5.4751,-5.4866,-5.4807,-5.4817,-5.4865,-5.4883,-5.4896,-5.4895,-5.468,0,0,0,0,0,-5.4739,-5.4773,-5.4761,-5.4828,-5.4833,-5.4812,-5.4828,-5.4805,-5.4812,-5.4815,-5.4809,-5.4817,-5.4844,-5.4863,-5.4888,-5.4967,-5.4965,-5.5005,-5.5019,-5.5031,-5.504,-5.5081,-5.5098,-5.4911,-5.4911,-5.4911,0,0,-5.4794,-5.4793,-5.4817,-5.4844,-5.4848,-5.4884,-5.4815,-5.4856,-5.4882,-5.4821,-5.4875,-5.4871,-5.4877,-5.4946,-5.4975,-5.4946,-5.5091,-5.5041,-5.505,-5.5053,-5.5091,-5.5109,-5.5124,-5.4917,-5.4916,-5.4915,0,0,-5.4914,-5.4917,-5.4972,-5.4977,-5.4984,-5.4968,-5.4982,-5.4979,-5.4974,-5.5027,-5.4983,-5.5012,-5.5061,-5.5067,-5.5076,-5.5197,-5.5162,-5.5206,-5.528,-5.532,-5.5335,-5.5348,-5.539,-5.5406,-5.5215,-5.5216,-5.5216,0,-5.4983,-5.5036,-5.5004,-5.5048,-5.5061,-5.5008,-5.5063,-5.5069,-5.5083,-5.5093,-5.506,-5.5119,-5.5119,-5.5188,-5.5218,-5.5227,-5.524,-5.5206,-5.5335,-5.5348,-5.5359,-5.54,-5.5416,-5.5221,-5.522,-5.522,-5.5219,0,-5.5119,-5.5156,-5.5199,-5.5215,-5.5233,-5.5282,-5.5257,-5.5279,-5.5254,-5.5242,-5.5297,-5.5296,-5.5319,-5.5333,-5.531,-5.5399,-5.538,-5.5342,-5.5282,-5.5383,-5.542,-5.5436,-5.5229,-5.5227,-5.5225,-5.5224,0,0,-5.5292,-5.5289,-5.5305,-5.5311,-5.5314,-5.5342,-5.5388,-5.5411,-5.543,-5.5441,-5.5478,-5.552,-5.5484,-5.5495,-5.5472,-5.5507,-5.5602,-5.5464,-5.5464,-5.549,-5.57,-5.5728,-5.5747,-5.5579,-5.5582,-5.5584,-5.5699,0,-5.5409,-5.5488,-5.5461,-5.5542,-5.5575,-5.5525,-5.5565,-5.557,-5.556,-5.5587,-5.5575,-5.5605,-5.5556,-5.5562,-5.5595,-5.5584,-5.5644,-5.5575,-5.5613,-5.5614,-5.5613,-5.5766,-5.5797,-5.5906,-5.5713,-5.5716,-5.5718,0,-5.5556,-5.5574,-5.5658,-5.5654,-5.5667,-5.5704,-5.5722,-5.5748,-5.5753,-5.5743,-5.5755,-5.5723,-5.5767,-5.5708,-5.5768,-5.5722,-5.5735,-5.5732,-5.5736,-5.5738,-5.5672,-5.5773,-5.594,-5.5956,-5.574,-5.5738,-5.5737,0,-5.5674,-5.5718,-5.5774,-5.578,-5.5778,-5.5804,-5.5804,-5.5806,-5.5821,-5.5837,-5.5846,-5.5867,-5.5878,-5.5894,-5.5869,-5.5828,-5.5932,-5.5871,-5.5925,-5.5926,-5.5949,-5.5948,-5.6121,-5.5959,-5.5958,-5.5958,-5.5958,0,-5.5807,-5.586,-5.5826,-5.5861,-5.5918,-5.5886,-5.5944,-5.5938,-5.594,-5.5971,-5.5929,-5.596,-5.5924,-5.5952,-5.5932,-5.5984,-5.599,-5.5983,-5.5977,-5.5986,-5.5987,-5.5995,-5.5986,-5.5962,-5.5961,-5.596,-5.596,0,-5.5948,-5.5928,-5.5985,-5.5977,-5.5977,-5.602,-5.6013,-5.6044,-5.603,-5.6071,-5.6078,-5.6058,-5.6087,-5.6064,-5.6092,-5.6079,-5.6148,-5.6132,-5.6147,-5.6142,-5.6198,-5.6193,-5.6381,-5.6404,-5.6227,-5.6229,-5.623,0,-5.6035,-5.6075,-5.6071,-5.609,-5.6092,-5.6122,-5.6137,-5.6106,-5.6124,-5.6132,-5.6162,-5.6188,-5.6207,-5.6256,-5.6243,-5.6265,-5.6248,-5.6313,-5.6251,-5.626,-5.6249,-5.6247,-5.6251,-5.6326,-5.6328,-5.6329,-5.6331,0,-5.6191,-5.6178,-5.6202,-5.6222,-5.6241,-5.6255,-5.6266,-5.6283,-5.6251,-5.6273,-5.6303,-5.6318,-5.6347,-5.6373,-5.639,-5.6389,-5.6355,-5.635,-5.6364,-5.6374,-5.6381,-5.6378,-5.6181,-5.6346,-5.6345,-5.6343,-5.6343,-5.6342,-5.6307,-5.6339,-5.6342,-5.6369,-5.6374,-5.6385,-5.6414,-5.6404,-5.6428,-5.645,-5.6429,-5.6465,-5.6468,-5.6488,-5.6491,-5.6518,-5.6491,-5.6511,-5.6516,-5.6521,-5.6529,-5.6377,-5.6521,-5.652,-5.652,-5.652,-5.6519,0,-5.646,-5.6459,-5.6484,-5.6501,-5.6522,-5.6488,-5.6498,-5.6518,-5.655,-5.6556,-5.6575,-5.6609,-5.6634,-5.6623,-5.6644,-5.6668,-5.6653,-5.6675,-5.6673,-5.6673,-5.6552,-5.6538,-5.6687,-5.6687,-5.6687,-5.6687,-5.6687,-5.6687,-5.6542,-5.6595,-5.6583,-5.6638,-5.6636,-5.6671,-5.668,-5.6689,-5.6693,-5.6733,-5.6753,-5.6746,-5.6745,-5.6766,-5.6787,-5.6783,-5.6792,-5.682,-5.6811,-5.6698,-5.6681,-5.6666,-5.6652,-5.6823,-5.6823,-5.6929,-5.693,-5.6931]}]]